Nankeda-1

operational
NORAD ID: 64049 Int'l Des: 2025-103 Owner: SUST/CTYK Country: CN
LEOCIRCULARRETROGRADESSO

Über Nankeda-1

Beschreibung wird geladen...

Live-Position

3D-Globus wird geladen...

Nächste Überflüge

Höhenverlauf

Altitude vs Time

uPlot chart will show altitude changes over time

Zweizeiliger Elementsatz

1 64049U 25103B 26062.22592052 .00004455 00000-0 21430-3 0 9998
2 64049 97.3892 136.4088 0002503 158.5214 201.6126 15.19290753 43972
Epoch: 3. März 2026 • Age: 30 hours

Aktueller Status

Höhe 525.7 km
Geschwindigkeit 7.60 km/s
Subsatellitenpunkt -47.00°S, 55.5°E
Startdatum 17. Mai 2025
Alter 0.7 years
Typ other

Technische Details

Klassifizierung Payload
Masse 50.00 kg
Trockenmasse 50.00 kg
Gesamtmasse 50.00 kg
Länge 0.50 m
Durchmesser 0.30 m
Spannweite 12.00 m
Form Box + 2 pan+ant
Hersteller CTYK
Bus-Typ TY
Phasenstatus In Orbit
Besitzer/Staat SUST/CTYK/CN

Große Konstellationen

Loading constellations...